Погода в Зарандже

Афганистан     30°57′34″N   61°51′38″E
темп.,
°C
ветер,
м/с
пор.,
м/с
влажн.,
%
обл.,
%
осадки,
мм/ч
давл.,
гПа
погр.,
м
10 августа, ср
ср1001:30+33ссз1524175 0.0 995464
04:30+31ссз1625182 0.0 995478
07:30+30ссз1722200 0.0 998700
10:30+37ссз1618121 0.0 9971194
13:30+42ссз171890 0.0 9952101
16:30+42ссз1617100 0.0 9942227
19:30+37ссз1520130 0.0 9951057
22:30+33ссз1321160 0.0 996772
11 августа, чт
чт1101:30+30ссз1423180 0.0 995671
04:30+29ссз1423190 0.0 996628
07:30+29ссз1623170 0.0 997873
10:30+36с1821110 0.0 9971301
13:30+39ссз171970 0.0 9961777
16:30+38ссз151670 0.0 9962041
19:30+34сз1218110 0.0 996600
22:30+31сз1117140 0.0 996550
12 августа, пт
пт1201:30+29сз915170 0.0 996401
04:30+28ссз914200 0.0 996306
07:30+28ссз913180 0.0 998565
10:30+35ссз99120 0.0 9981298
13:30+39ссв6680 0.0 9961977
16:30+40ссв4570 0.0 9932199
19:30+36в23100 0.0 99411
22:30+33ссз813150 0.0 996262
13 августа, сб
сб1301:30+31ссз1117150 0.0 996362
04:30+29ссз1218170 0.0 996396
07:30+29ссз1115170 0.0 998512
10:30+36с88110 0.0 9981100
13:30+41с8883 0.0 9951926
16:30+42ссз121180 0.0 9942245
19:30+37ссз131990 0.0 995736
22:30+34ссз1218110 0.0 996557
14 августа, вс
вс1401:30+32ссз1219145 0.0 996598
04:30+30ссз1320160 0.0 996541
07:30+30ссз1218160 0.0 998679
10:30+37ссз1010100 0.0 9981171
13:30+41ссз101080 0.0 9961751
16:30+42ссз111080 0.0 9942146
19:30+37сз1118110 0.0 996541
22:30+35ссз1219120 0.0 996511